[[{"header":{"parameterUnit":"m.s-1","parameterCategory":1,"la1":30.2991,"la2":30.254,"lo1":-89.0895,"lo2":-89.0444,"dy":0.0017,"dx":0.0017,"nx":28,"ny":28,"refTime":"2023-09-09T09:00:00:Z","depth":0,"parameterNumber":2,"parameterNumberName":"U-component_of_WINDS"},"data":[0,0,0,0,0,0,0,0,0,0,0,0,0,0,0,0,0,0,0,0,0,0,0,0,0,0,0,0,0,0,0,0,0,0,0,0,0,0,0,0,0,0,0,0,0,0,0,0,0,0,0,0,0,0,0,0,0,0,-0.0325,-0.0326,0,-0.0458,-0.046,-0.0461,-0.0525,-0.0525,-0.0525,-0.0525,-0.0661,-0.0665,-0.0668,0,0,0,0,0,0,0,0,0,0,0,0,0,-0.0125,-0.0128,-0.0325,-0.0327,-0.0328,-0.0458,-0.046,-0.0462,-0.0525,-0.0525,-0.0525,-0.0525,-0.066,-0.0664,-0.0669,0,0,0,0,0,0,0,0,0,0,0,0,0,-0.023,-0.0129,-0.0325,-0.0375,-0.0381,-0.0458,-0.046,-0.0462,-0.0525,-0.0525,-0.0525,-0.0524,-0.0658,-0.0664,-0.0669,-0.0705,0,0,-0.0686,-0.0689,0,0,0,0,0,0,0,0,-0.0224,-0.0238,-0.0366,-0.0372,-0.0379,-0.0475,-0.044,-0.0544,-0.0525,-0.047,-0.0525,-0.0524,-0.0599,-0.061,-0.0635,-0.0712,-0.0718,-0.0687,-0.069,-0.0692,-0.0694,0,0,0,0,0,0,0,-0.0217,-0.0232,-0.0378,-0.0368,-0.0376,-0.0392,-0.0406,-0.046,-0.0534,-0.0475,-0.048,-0.0495,-0.0603,-0.0629,-0.0638,-0.072,-0.0686,-0.0691,-0.0695,-0.0697,-0.0833,-0.0834,0,0,0,0,0,0,-0.0201,-0.0226,-0.0373,-0.0382,-0.03,-0.0395,-0.0412,-0.0444,-0.0533,-0.0547,-0.0495,-0.0497,-0.062,-0.0632,-0.0643,-0.0692,-0.0692,-0.0698,-0.0701,-0.0833,-0.0834,-0.0834,0,0,0,0,0,0,-0.0197,-0.0214,-0.0368,-0.0305,-0.0326,-0.0399,-0.0434,-0.0447,-0.0474,-0.0548,-0.0562,-0.0508,-0.062,-0.0636,-0.069,-0.0698,-0.07,-0.0705,-0.0833,-0.0833,-0.0834,-0.0789,0,0,0,0,0,0,-0.0191,-0.0212,-0.0226,-0.0305,-0.0329,-0.0412,-0.0435,-0.0449,-0.0483,-0.0487,-0.0565,-0.0577,-0.0621,-0.0681,-0.0695,-0.0705,-0.0709,-0.0832,-0.0833,-0.0834,-0.079,-0.0788,-0.0786,0,0,0,0,0,-0.0183,-0.0208,-0.0227,-0.0244,-0.0349,-0.0412,-0.0426,-0.0476,-0.0483,-0.0499,-0.0546,-0.0575,-0.0694,-0.0686,-0.0702,-0.0714,-0.0832,-0.0833,-0.0833,-0.0791,-0.0788,-0.0786,0,0,0,0,0,0,-0.0129,-0.022,-0.0241,-0.0292,-0.0344,-0.0423,-0.0443,-0.0472,-0.0523,-0.0525,-0.0585,-0.0602,-0.065,-0.0688,-0.0677,-0.0754,-0.0766,-0.077,-0.0728,-0.0726,-0.0724,-0.0714,-0.0714,0,0,0,0,0,-0.0122,-0.0166,-0.0244,-0.0281,-0.0306,-0.037,-0.04,-0.0434,-0.049,-0.0512,-0.0564,-0.0617,-0.0667,-0.0699,-0.0749,-0.0796,-0.0814,-0.0812,-0.081,-0.0808,-0.0811,-0.0839,-0.084,-0.0836,-0.0836,-0.0836,0,0,-0.011,-0.0165,-0.0189,-0.0272,-0.0316,-0.036,-0.0388,-0.0434,-0.0467,-0.0519,-0.0573,-0.0613,-0.0677,-0.0728,-0.0753,-0.076,-0.0816,-0.0809,-0.0807,-0.0811,-0.084,-0.084,-0.084,-0.0837,-0.0836,-0.0836,0,0,-0.0111,-0.0157,-0.0193,-0.0237,-0.0304,-0.0346,-0.0355,-0.043,-0.0458,-0.0513,-0.0553,-0.0594,-0.0678,-0.0722,-0.0755,-0.0773,-0.0801,-0.0787,-0.0776,-0.0803,-0.0804,-0.0804,-0.0811,-0.0812,-0.079,-0.0789,-0.0789,0,-0.0087,-0.0155,-0.0208,-0.0252,-0.0287,-0.0336,-0.0374,-0.0414,-0.0493,-0.0516,-0.0524,-0.0631,-0.0677,-0.0739,-0.0743,-0.0768,-0.078,-0.0779,-0.0799,-0.08,-0.0802,-0.0809,-0.0811,-0.0787,-0.0788,-0.0788,-0.0788,0,-0.0123,-0.017,-0.0192,-0.0267,-0.0305,-0.0345,-0.0404,-0.0436,-0.0467,-0.0508,-0.0564,-0.0621,-0.0684,-0.0701,-0.0731,-0.0767,-0.077,-0.0788,-0.0801,-0.0799,-0.0807,-0.081,-0.0784,-0.0785,-0.0786,-0.0786,0,0,-0.0093,-0.0197,-0.0205,-0.024,-0.0317,-0.0354,-0.0397,-0.0458,-0.0484,-0.0537,-0.0574,-0.0645,-0.0661,-0.0699,-0.0735,-0.0758,-0.0769,-0.0773,-0.0776,-0.0771,-0.0812,-0.0799,-0.0801,-0.0788,-0.0788,-0.0789,-0.0807,0,-0.0104,-0.0183,-0.0232,-0.0291,-0.0335,-0.0382,-0.042,-0.0471,-0.0511,-0.0554,-0.0599,-0.0648,-0.0666,-0.0689,-0.0714,-0.0762,-0.0778,-0.0761,-0.0823,-0.0825,-0.0806,-0.0805,-0.0791,-0.0806,-0.081,-0.0811,-0.0811,0,-0.0128,-0.018,-0.0244,-0.0316,-0.0337,-0.0369,-0.0429,-0.047,-0.0529,-0.0557,-0.0599,-0.0635,-0.0682,-0.0691,-0.0757,-0.0745,-0.0773,-0.08,-0.0802,-0.081,-0.0818,-0.0813,-0.0811,-0.0813,-0.0816,-0.0816,-0.0816,0,-0.01,-0.0186,-0.0235,-0.0264,-0.035,-0.0371,-0.0408,-0.0468,-0.0501,-0.0554,-0.0577,-0.0634,-0.0665,-0.0709,-0.0759,-0.0761,-0.082,-0.0833,-0.0845,-0.0843,-0.0856,-0.0854,-0.0858,-0.0873,-0.0873,-0.0873,-0.0873,0,-0.0108,-0.0145,-0.0224,-0.0254,-0.0297,-0.0353,-0.0394,-0.0435,-0.0487,-0.0526,-0.0571,-0.0606,-0.0671,-0.0715,-0.0755,-0.0804,-0.0817,-0.0841,-0.0852,-0.0838,-0.0835,-0.0857,-0.0858,-0.0873,-0.0873,-0.0873,-0.0873,0,-0.0084,-0.0138,-0.0195,-0.0272,-0.0292,-0.032,-0.0386,-0.0417,-0.046,-0.0509,-0.0523,-0.059,-0.0644,-0.0699,-0.0772,-0.0799,-0.0846,-0.086,-0.0826,-0.0832,-0.0841,-0.0839,-0.086,-0.0866,-0.0875,-0.0875,-0.0875,0,-0.0085,-0.0115,-0.0195,-0.0224,-0.026,-0.0307,-0.0342,-0.0398,-0.0432,-0.0502,-0.0525,-0.0583,-0.0631,-0.0715,-0.077,-0.0826,-0.0842,-0.0845,-0.0851,-0.0836,-0.0843,-0.084,-0.0844,-0.0843,-0.0843,-0.0843,-0.0842,0,-0.0082,-0.0108,-0.0156,-0.0214,-0.0254,-0.0303,-0.0353,-0.0374,-0.044,-0.0477,-0.0533,-0.057,-0.0645,-0.0701,-0.0764,-0.0802,-0.0833,-0.084,-0.0846,-0.0832,-0.0811,-0.0823,-0.0821,-0.0839,-0.084,-0.084,-0.084,-0.084,-0.0072,-0.01,-0.0161,-0.0214,-0.0257,-0.0303,-0.0336,-0.0383,-0.043,-0.0496,-0.0526,-0.0582,-0.0641,-0.0728,-0.0766,-0.0811,-0.0819,-0.0827,-0.083,-0.0831,-0.0828,-0.0804,-0.0822,-0.0822,-0.0822,-0.0823,-0.0823,0,-0.0071,-0.0113,-0.016,-0.0229,-0.0271,-0.0296,-0.0353,-0.0386,-0.0435,-0.0487,-0.0535,-0.0599,-0.0654,-0.0713,-0.0772,-0.0796,-0.0812,-0.0809,-0.0808,-0.0817,-0.0816,-0.0806,-0.0796,-0.0796,-0.0796,-0.0796,-0.0796,-0.0796,-0.0076,-0.0126,-0.0159,-0.0231,-0.0272,-0.0328,-0.0358,-0.04,-0.0443,-0.0512,-0.0558,-0.0597,-0.0652,-0.0715,-0.0767,-0.0783,-0.0803,-0.0796,-0.0816,-0.0815,-0.0817,-0.0819,-0.0809,-0.08,-0.08,-0.0813,-0.0813,-0.0814]},{"header":{"parameterUnit":"m.s-1","parameterCategory":1,"la1":30.2991,"la2":30.254,"lo1":-89.0895,"lo2":-89.0444,"dy":0.0017,"dx":0.0017,"nx":28,"ny":28,"refTime":"2023-09-09T09:00:00:Z","depth":0,"parameterNumber":3,"parameterNumberName":"V-component_of_WINDS"},"data":[0,0,0,0,0,0,0,0,0,0,0,0,0,0,0,0,0,0,0,0,0,0,0,0,0,0,0,0,0,0,0,0,0,0,0,0,0,0,0,0,0,0,0,0,0,0,0,0,0,0,0,0,0,0,0,0,0,0,-2.4651,-2.4652,0,-2.4801,-2.4802,-2.4804,-2.482,-2.4819,-2.4817,-2.4816,-2.4967,-2.4972,-2.4977,0,0,0,0,0,0,0,0,0,0,0,0,0,-2.4376,-2.4381,-2.465,-2.4652,-2.4654,-2.48,-2.4802,-2.4804,-2.4821,-2.4819,-2.4817,-2.4815,-2.4965,-2.4971,-2.4978,0,0,0,0,0,0,0,0,0,0,0,0,0,-2.4507,-2.4383,-2.465,-2.468,-2.4684,-2.48,-2.4802,-2.4805,-2.4821,-2.4819,-2.4816,-2.4814,-2.4963,-2.4971,-2.4979,-2.5074,0,0,-2.5004,-2.5007,0,0,0,0,0,0,0,0,-2.45,-2.4518,-2.4674,-2.4678,-2.4683,-2.4789,-2.4761,-2.4895,-2.4821,-2.4769,-2.4816,-2.4813,-2.4909,-2.4922,-2.4955,-2.5081,-2.5088,-2.5004,-2.5009,-2.5013,-2.5015,0,0,0,0,0,0,0,-2.4491,-2.4511,-2.471,-2.4676,-2.4682,-2.4685,-2.4701,-2.4787,-2.485,-2.4773,-2.4775,-2.4793,-2.4911,-2.4947,-2.4958,-2.509,-2.5004,-2.5011,-2.5016,-2.502,-2.5304,-2.5306,0,0,0,0,0,0,-2.4477,-2.4503,-2.4705,-2.4714,-2.4584,-2.4692,-2.471,-2.4758,-2.4849,-2.4861,-2.4794,-2.4793,-2.4934,-2.4949,-2.4964,-2.5082,-2.5013,-2.502,-2.5025,-2.5301,-2.5304,-2.5307,0,0,0,0,0,0,-2.4471,-2.4494,-2.4699,-2.4609,-2.4636,-2.4699,-2.4752,-2.4762,-2.4797,-2.4865,-2.4876,-2.4819,-2.4933,-2.4952,-2.5047,-2.5088,-2.5024,-2.5031,-2.5298,-2.5302,-2.5306,-2.532,0,0,0,0,0,0,-2.4463,-2.4492,-2.4529,-2.461,-2.464,-2.478,-2.4755,-2.4766,-2.4812,-2.4811,-2.4891,-2.4902,-2.4933,-2.5035,-2.5055,-2.5098,-2.5038,-2.5294,-2.53,-2.5304,-2.5316,-2.5324,-2.533,0,0,0,0,0,-2.4453,-2.4527,-2.4531,-2.4555,-2.4689,-2.4783,-2.48,-2.4834,-2.4815,-2.4853,-2.4896,-2.49,-2.508,-2.5045,-2.5068,-2.5113,-2.5292,-2.5298,-2.5304,-2.5313,-2.5322,-2.533,0,0,0,0,0,0,-2.4448,-2.4538,-2.4544,-2.4646,-2.4707,-2.4785,-2.4834,-2.4843,-2.491,-2.4906,-2.4945,-2.4963,-2.5056,-2.5094,-2.5053,-2.5211,-2.5184,-2.5195,-2.5183,-2.5192,-2.52,-2.5188,-2.5045,0,0,0,0,0,-2.4459,-2.4529,-2.4603,-2.4686,-2.4716,-2.477,-2.4812,-2.4834,-2.4898,-2.4923,-2.4974,-2.5035,-2.5105,-2.5151,-2.522,-2.5322,-2.5339,-2.5364,-2.5372,-2.5377,-2.5386,-2.5443,-2.5455,-2.5327,-2.5327,-2.5327,0,0,-2.4482,-2.454,-2.4581,-2.4687,-2.4736,-2.4807,-2.4791,-2.4867,-2.4919,-2.4934,-2.5027,-2.5066,-2.5137,-2.5236,-2.5282,-2.5271,-2.5426,-2.5385,-2.5389,-2.5395,-2.5451,-2.5463,-2.5474,-2.5331,-2.533,-2.5329,0,0,-2.456,-2.4611,-2.4686,-2.4736,-2.4812,-2.4848,-2.4866,-2.4943,-2.497,-2.5065,-2.5077,-2.514,-2.5261,-2.5311,-2.5352,-2.5451,-2.5457,-2.5472,-2.551,-2.5565,-2.5576,-2.5585,-2.562,-2.5632,-2.5481,-2.5481,-2.5481,0,-2.4579,-2.4687,-2.4723,-2.4799,-2.4845,-2.4863,-2.4939,-2.4986,-2.508,-2.5111,-2.5097,-2.5249,-2.5298,-2.541,-2.5434,-2.5467,-2.5488,-2.5463,-2.5571,-2.5581,-2.559,-2.5624,-2.5637,-2.5482,-2.5482,-2.5482,-2.5482,0,-2.4707,-2.4781,-2.4833,-2.4924,-2.4976,-2.5052,-2.5099,-2.5147,-2.5164,-2.5201,-2.5297,-2.5357,-2.5438,-2.5466,-2.5483,-2.558,-2.557,-2.5563,-2.5537,-2.5603,-2.5636,-2.5649,-2.5484,-2.5484,-2.5484,-2.5483,0,0,-2.4785,-2.4897,-2.4915,-2.4957,-2.5043,-2.5101,-2.5177,-2.5258,-2.5298,-2.5363,-2.5427,-2.553,-2.5524,-2.5571,-2.5594,-2.5643,-2.5717,-2.563,-2.5632,-2.5644,-2.5829,-2.5833,-2.5848,-2.5722,-2.5725,-2.5727,-2.5823,0,-2.4873,-2.5011,-2.5046,-2.5163,-2.5232,-2.5251,-2.5318,-2.5377,-2.5413,-2.5477,-2.5517,-2.5589,-2.5576,-2.5605,-2.5654,-2.5698,-2.5755,-2.5691,-2.5782,-2.5785,-2.5764,-2.5865,-2.587,-2.5958,-2.5836,-2.5838,-2.5839,0,-2.4994,-2.5062,-2.5186,-2.5264,-2.5294,-2.5353,-2.5431,-2.5492,-2.5559,-2.5583,-2.5636,-2.5654,-2.5734,-2.5704,-2.5815,-2.5771,-2.581,-2.5837,-2.5841,-2.5851,-2.5816,-2.5877,-2.5987,-2.6,-2.586,-2.5858,-2.5857,0,-2.5039,-2.5162,-2.5252,-2.5288,-2.538,-2.5421,-2.5462,-2.5527,-2.5574,-2.5641,-2.5672,-2.5747,-2.5788,-2.5846,-2.5884,-2.5859,-2.5992,-2.5965,-2.6013,-2.6012,-2.604,-2.6037,-2.6157,-2.6065,-2.6065,-2.6065,-2.6064,0,-2.5134,-2.5209,-2.5274,-2.533,-2.5414,-2.5455,-2.5537,-2.5578,-2.5636,-2.57,-2.572,-2.5779,-2.5826,-2.5891,-2.5921,-2.6008,-2.6027,-2.6047,-2.6054,-2.6046,-2.6043,-2.6072,-2.6067,-2.6068,-2.6067,-2.6067,-2.6066,0,-2.5198,-2.5245,-2.5345,-2.5425,-2.5446,-2.5505,-2.5573,-2.5628,-2.5666,-2.5746,-2.5767,-2.5825,-2.5903,-2.5947,-2.6045,-2.6065,-2.6163,-2.6167,-2.614,-2.6143,-2.6189,-2.6184,-2.6331,-2.6352,-2.6246,-2.6247,-2.6248,0,-2.5255,-2.5314,-2.5401,-2.5445,-2.5487,-2.5558,-2.5606,-2.5648,-2.5697,-2.5779,-2.5824,-2.5903,-2.5969,-2.6092,-2.6143,-2.6218,-2.6224,-2.6271,-2.6236,-2.6225,-2.6225,-2.6221,-2.6228,-2.6276,-2.6277,-2.6278,-2.6279,0,-2.5352,-2.5373,-2.5442,-2.552,-2.5577,-2.564,-2.5702,-2.5737,-2.5789,-2.5843,-2.5924,-2.5975,-2.6076,-2.6154,-2.6234,-2.6274,-2.6286,-2.629,-2.6305,-2.6296,-2.6279,-2.6289,-2.6157,-2.6286,-2.6285,-2.6285,-2.6284,-2.6284,-2.5415,-2.5468,-2.5538,-2.5615,-2.5666,-2.5724,-2.578,-2.5825,-2.5893,-2.5979,-2.6,-2.6085,-2.6151,-2.6259,-2.6302,-2.6369,-2.636,-2.6382,-2.6388,-2.6392,-2.6394,-2.6268,-2.6383,-2.6383,-2.6383,-2.6383,-2.6383,0,-2.5513,-2.5559,-2.5629,-2.5717,-2.5777,-2.5784,-2.5853,-2.5903,-2.5978,-2.604,-2.6104,-2.6197,-2.6274,-2.6331,-2.641,-2.6452,-2.6459,-2.6471,-2.6468,-2.6478,-2.6397,-2.6376,-2.6464,-2.6464,-2.6464,-2.6464,-2.6464,-2.6464,-2.5571,-2.5662,-2.5691,-2.5807,-2.5853,-2.5937,-2.5976,-2.603,-2.608,-2.6183,-2.6247,-2.6285,-2.6345,-2.6428,-2.6499,-2.6514,-2.6541,-2.6553,-2.6568,-2.6492,-2.6483,-2.6475,-2.6456,-2.6559,-2.6559,-2.6643,-2.6644,-2.6645]}]]